This is the latest recevied weather packets stored in our database for station/object N8SDR. If no packets are shown the sender has not sent any weather packets the latest 10 day(s).
| Time | Temp. | Humidity | Pressure | Rain* | Wind** | Luminosity | Snow |
|---|---|---|---|---|---|---|---|
| 1777464804 | 12.78° C | 99% | 1007.6 hPa | 0 mm | - | 19 W/m² | - |
| 1777464499 | 12.78° C | 99% | 1007.6 hPa | 0 mm | - | 17 W/m² | - |
| 1777464196 | 12.78° C | 99% | 1007.4 hPa | 0 mm | - | 10 W/m² | - |
| 1777463896 | 12.78° C | 99% | 1007.5 hPa | 0 mm | - | 13 W/m² | - |
| 1777463592 | 12.78° C | 99% | 1007.4 hPa | 0 mm | - | 6 W/m² | - |
| 1777463287 | 12.78° C | 99% | 1007.5 hPa | 0 mm | - | 11 W/m² | - |
| 1777462983 | 12.78° C | 99% | 1007.4 hPa | 0 mm | - | 8 W/m² | - |
| 1777462679 | 12.78° C | 99% | 1007.3 hPa | 0 mm | - | 7 W/m² | - |
| 1777462374 | 12.78° C | 99% | 1007.5 hPa | 0 mm | - | 6 W/m² | - |
| 1777462070 | 12.78° C | 99% | 1007.5 hPa | 0 mm | - | 3 W/m² | - |
| 1777461768 | 12.78° C | 99% | 1007.2 hPa | 0 mm | - | 2 W/m² | - |
| 1777461463 | 12.78° C | 99% | 1007.3 hPa | 0 mm | - | 3 W/m² | - |
| 1777461160 | 12.78° C | 99% | 1007.3 hPa | 0 mm | - | 7 W/m² | - |
| 1777460855 | 12.78° C | 99% | 1007.4 hPa | 0 mm | - | 4 W/m² | - |
| 1777460551 | 12.78° C | 99% | 1007.5 hPa | 0 mm | - | 0 W/m² | - |
| 1777460246 | 12.78° C | 99% | 1007.4 hPa | 0 mm | - | 0 W/m² | - |
| 1777459944 | 12.78° C | 99% | 1006.9 hPa | 0 mm | - | 0 W/m² | - |
| 1777459641 | 12.78° C | 99% | 1007.2 hPa | 0 mm | - | 0 W/m² | - |
| 1777459337 | 12.78° C | 99% | 1007.1 hPa | 0 mm | - | 0 W/m² | - |
| 1777459036 | 12.78° C | 99% | 1007.2 hPa | 0 mm | - | 0 W/m² | - |
| 1777458733 | 12.78° C | 99% | 1007.1 hPa | 0 mm | - | 0 W/m² | - |
| 1777458429 | 12.78° C | 99% | 1007.2 hPa | 0 mm | - | 0 W/m² | - |
| 1777458125 | 12.78° C | 99% | 1007 hPa | 0 mm | - | 0 W/m² | - |
| 1777457821 | 12.78° C | 99% | 1007 hPa | 0 mm | - | 0 W/m² | - |
| 1777457515 | 12.78° C | 99% | 1007 hPa | 0 mm | - | 0 W/m² | - |
* Rain latest hour (hover to see other rain measurements)
** Current wind speed in m/s (hover to see current wind gust speed)